Hourly Data Report for October 02, 2014

All times are specified in Local Standard Time (LST). Add 1 hour to adjust for Daylight Saving Time where and when it is observed.

GJOA HAVEN A
NUNAVUT

68°38'08.000" N
95°51'01.000" W
46.90 m
2302337
71597
YHK

Download Data

Hourly Data (October 2014)
Hourly Data Report for October 2, 2014
Temp Definition
°C
Dew Point Temp Definition
°C
Rel Hum Definition
%
Wind Dir Definition
10's deg

Wind Spd Definition
km/h
Visibility Definition
km
Stn Press Definition
kPa
Hmdx Definition


Wind Chill Definition


Weather Definition


TIME
00:00 Legend Double Dagger -9.9 -10.8 93 1 17 16.1 101.30   -17 LegendNANA
01:00 Legend Double Dagger -9.0 -10.1 92 2 13 16.1 101.30   -15 LegendNANA
02:00 Legend Double Dagger -9.8 -10.7 93 35 18 16.1 101.27   -17 LegendNANA
03:00 Legend Double Dagger -9.4 -10.7 90 36 21 16.1 101.26   -17 LegendNANA
04:00 Legend Double Dagger -9.3 -10.8 89 36 24 16.1 101.24   -18 LegendNANA
05:00 Legend Double Dagger -9.3 -10.6 91 36 22 16.1 101.22   -17 LegendNANA
06:00 Legend Double Dagger -9.4 -11.0 89 36 18 16.1 101.21   -17 LegendNANA
07:00 Legend Double Dagger -8.2 -9.3 92 1 18 16.1 101.21   -15 LegendNANA
08:00 Legend Double Dagger -7.1 -8.5 90 36 21 16.1 101.20   -14 LegendNANA
09:00 Legend Double Dagger -5.9 -7.7 87 36 21 16.1 101.18   -13 LegendNANA
10:00 Legend Double Dagger -5.1 -7.1 86 1 24 16.1 101.15   -12 LegendNANA
11:00 Legend Double Dagger -5.0 -6.8 88 1 30 16.1 101.13   -13 LegendNANA
12:00 Legend Double Dagger -5.5 -7.5 86 36 32 16.1 101.10   -14 LegendNANA
13:00 Legend Double Dagger -5.3 -7.3 86 36 32 16.1 101.08   -14 LegendNANA
14:00 Legend Double Dagger -5.6 -7.5 87 36 37 16.1 101.06   -15 LegendNANA
15:00 Legend Double Dagger -6.0 -7.7 88 36 35 16.1 101.09   -15 LegendNANA
16:00 Legend Double Dagger -6.5 -8.0 89 36 30 16.1 101.08   -15 LegendNANA
17:00 Legend Double Dagger -6.6 -8.4 87 36 34 16.1 101.05   -16 LegendNANA
18:00 Legend Double Dagger -7.0 -8.7 88 1 34 16.1 101.06   -16 LegendNANA
19:00 Legend Double Dagger -7.6 -9.0 90 1 34 16.1 101.06   -17 LegendNANA
20:00 Legend Double Dagger -7.6 -9.3 88 1 24 16.1 101.09   -16 LegendNANA
21:00 Legend Double Dagger -8.0 -9.4 90 1 28 16.1 101.08   -17 LegendNANA
22:00 Legend Double Dagger -8.8 -10.1 91 36 28 16.1 101.08   -18 LegendNANA
23:00 Legend Double Dagger -8.2 -9.5 91 36 26 16.1 101.07   -17 LegendNANA

Notes on Data Quality.

Legend

  • E = Estimated
  • M = Missing
  • NA = Not Available
  • ‡ = Partner data that is not subject to review by the National Climate Archives
Date modified: